W2CJS Weather Reports


Display with metric or nautical units.
time (UTC)temp
F
wind
direction
speed
MPH
gust
MPH
rain 1hr
in
rain 24hr
in
rain mn
in
humidity
%
barometer
mb
20260508050003 30 144 1.0 3.0 0.00 0.01 0.00 88 1007.8
20260508045003 30 145 1.0 3.0 0.00 0.01 0.00 88 1007.8
20260508044003 30 151 0.0 2.0 0.00 0.01 0.00 88 1007.9
20260508043024 30 191 0.0 2.0 0.00 0.01 0.00 87 1007.9
20260508042003 30 0 0.0 0.0 0.00 0.01 0.00 87 1008.0
20260508041003 30 191 1.0 2.0 0.00 0.01 0.00 87 1007.9
20260508040003 30 0 0.0 0.0 0.00 0.01 0.00 86 1007.9
20260508035003 31 0 0.0 0.0 0.00 0.01 0.01 86 1007.9
20260508034003 31 191 0.0 1.0 0.00 0.01 0.01 86 1007.7
20260508033003 31 191 0.0 1.0 0.00 0.01 0.01 86 1007.8
20260508032003 31 191 0.0 2.0 0.00 0.01 0.01 85 1007.8
20260508031003 32 0 0.0 0.0 0.00 0.01 0.01 84 1007.9
20260508030024 32 0 0.0 0.0 0.00 0.01 0.01 84 1007.9
20260508025024 32 0 0.0 0.0 0.00 0.01 0.01 83 1007.9
20260508024003 32 191 0.0 2.0 0.00 0.01 0.01 83 1007.9
20260508023003 32 198 0.0 1.0 0.00 0.01 0.01 83 1008.0
20260508022024 33 198 0.0 2.0 0.00 0.01 0.01 82 1008.0
20260508021003 33 0 0.0 0.0 0.00 0.01 0.01 81 1008.1
20260508020003 34 0 0.0 0.0 0.00 0.01 0.01 80 1008.1
20260508015003 34 0 0.0 0.0 0.00 0.01 0.01 79 1008.0
20260508014003 34 0 0.0 0.0 0.00 0.01 0.01 78 1008.0
20260508013003 35 0 0.0 0.0 0.00 0.01 0.01 76 1007.9
20260508012003 36 0 0.0 0.0 0.00 0.01 0.01 75 1007.9
20260508011003 37 0 0.0 0.0 0.00 0.01 0.01 72 1007.7
20260508010003 38 0 0.0 0.0 0.00 0.01 0.01 71 1007.7
20260508005003 39 0 0.0 0.0 0.00 0.01 0.01 69 1007.5
20260508004003 40 0 0.0 0.0 0.00 0.01 0.01 67 1007.3
20260508003003 41 0 0.0 0.0 0.00 0.01 0.01 67 1007.1
20260508002003 42 0 0.0 0.0 0.00 0.01 0.01 62 1007.0
20260508001003 43 0 0.0 0.0 0.00 0.01 0.01 60 1007.0
20260508000003 44 189 0.0 4.0 0.00 0.01 0.01 56 1006.9
20260507235003 44 135 0.0 4.0 0.00 0.01 0.01 53 1006.9
20260507234003 45 181 0.0 6.0 0.00 0.01 0.01 56 1006.8
20260507233003 46 237 1.0 3.0 0.00 0.01 0.01 48 1006.8
20260507232003 46 189 1.0 3.0 0.00 0.01 0.01 48 1006.9
20260507231024 47 165 1.0 5.0 0.00 0.01 0.01 47 1006.9
20260507230004 47 359 1.0 3.0 0.00 0.01 0.01 48 1006.9
20260507225003 47 296 2.0 9.0 0.00 0.01 0.01 46 1006.9
20260507224003 47 329 2.0 8.0 0.00 0.01 0.01 46 1007.0
20260507223003 47 48 2.0 7.0 0.00 0.01 0.01 47 1007.0
20260507222003 47 39 2.0 6.0 0.00 0.01 0.01 51 1006.9
20260507221003 47 95 2.0 7.0 0.00 0.01 0.01 50 1007.1
20260507220003 47 223 4.0 11.0 0.00 0.02 0.01 49 1007.2
20260507215003 47 273 3.0 8.0 0.00 0.02 0.01 49 1007.2
20260507214024 46 272 2.0 8.0 0.00 0.02 0.01 49 1007.3
20260507213003 47 235 3.0 9.0 0.00 0.02 0.01 49 1007.2
20260507212003 46 302 2.0 7.0 0.00 0.03 0.01 48 1007.2
20260507211003 46 254 4.0 12.0 0.00 0.03 0.01 48 1007.2
20260507210003 46 230 3.0 8.0 0.00 0.03 0.01 49 1007.2
20260507205003 47 239 4.0 12.0 0.00 0.03 0.01 49 1007.1
20260507204003 46 227 4.0 11.0 0.00 0.03 0.01 50 1007.1
20260507203003 47 238 5.0 15.0 0.00 0.03 0.01 49 1007.2
20260507202024 47 220 4.0 10.0 0.00 0.03 0.01 49 1007.0
20260507201003 47 242 3.0 8.0 0.00 0.04 0.01 46 1007.1
20260507200003 47 229 4.0 10.0 0.00 0.04 0.01 50 1007.1
20260507195003 47 242 3.0 11.0 0.00 0.04 0.01 49 1007.2
20260507194003 47 240 5.0 16.0 0.00 0.04 0.01 46 1007.3
20260507193003 48 268 4.0 10.0 0.00 0.04 0.01 48 1007.3
20260507192003 48 271 4.0 10.0 0.00 0.05 0.01 46 1007.3
20260507191003 48 241 5.0 12.0 0.00 0.05 0.01 47 1007.3
20260507190024 49 242 5.0 14.0 0.00 0.05 0.01 47 1007.5
20260507185024 48 242 6.0 17.0 0.00 0.05 0.01 50 1007.4
20260507184003 47 225 5.0 14.0 0.00 0.05 0.01 51 1007.3
20260507183003 48 254 4.0 12.0 0.00 0.05 0.01 46 1007.4
20260507182003 48 263 4.0 10.0 0.00 0.05 0.01 45 1007.4
20260507181003 49 230 5.0 13.0 0.00 0.05 0.01 46 1007.2
20260507180003 49 246 4.0 10.0 0.00 0.05 0.01 45 1007.2
20260507175003 49 248 4.0 14.0 0.00 0.05 0.01 49 1007.2
20260507174003 48 263 5.0 14.0 0.00 0.06 0.01 46 1007.3
20260507173003 47 237 4.0 10.0 0.00 0.06 0.01 48 1007.3
20260507172003 47 242 5.0 15.0 0.00 0.06 0.01 50 1007.4
20260507171003 47 252 4.0 11.0 0.00 0.07 0.01 47 1007.5
20260507170003 47 235 7.0 19.0 0.00 0.07 0.01 48 1007.3
20260507165003 48 251 4.0 11.0 0.00 0.07 0.01 52 1007.4
20260507164003 47 259 6.0 15.0 0.00 0.09 0.01 50 1007.7
20260507163003 48 245 7.0 19.0 0.00 0.09 0.01 45 1007.8
20260507162003 48 238 6.0 14.0 0.00 0.10 0.01 47 1008.1
20260507161003 46 238 4.0 14.0 0.00 0.12 0.01 50 1007.9
20260507160003 46 240 6.0 16.0 0.00 0.14 0.01 50 1008.0
20260507155024 46 248 4.0 15.0 0.00 0.15 0.01 53 1008.0
20260507154003 45 276 4.0 11.0 0.00 0.17 0.01 51 1008.0
20260507153024 45 284 4.0 10.0 0.00 0.19 0.01 50 1008.3
20260507152003 45 236 5.0 12.0 0.00 0.21 0.01 53 1008.4
20260507151003 45 247 6.0 15.0 0.00 0.23 0.01 50 1008.3
20260507150004 45 239 8.0 20.0 0.00 0.27 0.01 50 1008.4
20260507145003 45 243 7.0 19.0 0.00 0.30 0.01 50 1008.4
20260507144003 45 245 5.0 13.0 0.00 0.33 0.01 53 1008.3
20260507143003 44 244 5.0 18.0 0.00 0.36 0.01 56 1008.3
20260507142003 44 249 7.0 17.0 0.00 0.39 0.01 56 1008.4
20260507141003 43 242 5.0 17.0 0.00 0.40 0.01 60 1008.3
20260507140003 42 244 5.0 14.0 0.00 0.42 0.01 60 1008.3
20260507135003 42 243 4.0 14.0 0.00 0.44 0.01 58 1008.4
20260507134024 42 261 4.0 11.0 0.00 0.48 0.01 61 1008.5
20260507133024 41 255 5.0 16.0 0.00 0.50 0.01 61 1008.4
20260507132003 41 232 5.0 17.0 0.00 0.52 0.01 65 1008.4
20260507131024 40 231 6.0 16.0 0.00 0.53 0.01 65 1008.5
20260507130003 40 236 4.0 14.0 0.00 0.55 0.01 67 1008.5
20260507125024 39 232 4.0 13.0 0.00 0.56 0.01 69 1008.6
20260507124024 39 228 3.0 11.0 0.00 0.57 0.01 73 1008.7
20260507123003 38 230 3.0 9.0 0.00 0.58 0.01 73 1008.8
20260507122004 37 239 2.0 7.0 0.00 0.59 0.01 75 1008.6
20260507121003 37 239 3.0 8.0 0.00 0.60 0.01 75 1008.8
20260507120004 36 232 2.0 11.0 0.00 0.61 0.01 76 1008.9
20260507115003 36 250 3.0 10.0 0.00 0.62 0.01 77 1008.9
20260507114003 36 148 1.0 5.0 0.00 0.64 0.01 82 1008.7
20260507113003 35 204 1.0 4.0 0.00 0.65 0.01 83 1008.8
20260507112003 35 219 1.0 7.0 0.00 0.67 0.01 83 1008.9
20260507111003 35 224 4.0 8.0 0.00 0.69 0.01 84 1008.8
20260507110024 34 228 4.0 9.0 0.00 0.70 0.01 85 1008.6
20260507105003 34 232 4.0 9.0 0.00 0.71 0.01 86 1008.4
20260507104003 34 230 3.0 9.0 0.00 0.71 0.01 86 1008.3
20260507103024 34 224 4.0 8.0 0.00 0.72 0.01 87 1008.4
20260507102003 34 221 3.0 7.0 0.00 0.73 0.01 88 1008.3
20260507101003 34 228 3.0 7.0 0.00 0.74 0.01 87 1008.2
20260507100003 34 222 2.0 5.0 0.00 0.74 0.01 87 1008.1
20260507095003 35 223 2.0 5.0 0.00 0.75 0.01 87 1007.9
20260507094003 35 220 4.0 8.0 0.00 0.76 0.01 86 1008.0
20260507093003 36 227 4.0 9.0 0.00 0.77 0.01 87 1008.1
20260507092003 36 225 4.0 9.0 0.00 0.78 0.01 88 1008.1
20260507091003 36 228 4.0 6.0 0.00 0.78 0.01 89 1007.9
20260507090004 37 224 4.0 8.0 0.00 0.78 0.01 88 1008.0
20260507085003 37 221 5.0 9.0 0.00 0.78 0.01 88 1007.9
20260507084024 37 229 3.0 4.0 0.00 0.78 0.01 91 1007.7
20260507083024 37 228 2.0 4.0 0.00 0.78 0.01 90 1007.5
20260507082003 38 227 2.0 5.0 0.00 0.78 0.01 91 1007.4
20260507081003 38 226 0.0 2.0 0.00 0.79 0.01 91 1007.4
20260507080004 38 226 2.0 4.0 0.00 0.80 0.01 90 1007.5
20260507075003 38 229 2.0 5.0 0.01 0.80 0.01 90 1007.6
20260507074003 38 214 1.0 4.0 0.01 0.81 0.01 89 1007.8
20260507073004 38 0 0.0 0.0 0.01 0.81 0.01 90 1007.7
20260507072024 38 0 0.0 0.0 0.01 0.81 0.01 89 1007.8
20260507071003 38 237 2.0 8.0 0.01 0.81 0.01 87 1007.9
20260507070004 39 231 5.0 13.0 0.01 0.81 0.01 88 1007.9
20260507065003 40 238 4.0 11.0 0.00 0.81 0.00 90 1007.8
20260507064003 41 235 3.0 6.0 0.00 0.81 0.00 92 1007.7
20260507063003 41 229 3.0 9.0 0.00 0.81 0.00 92 1007.6
20260507062003 41 209 3.0 7.0 0.00 0.81 0.00 92 1007.6
20260507061003 41 231 2.0 9.0 0.00 0.81 0.00 92 1007.7
20260507060003 41 211 2.0 5.0 0.00 0.81 0.00 92 1007.8
20260507055003 41 0 0.0 0.0 0.00 0.81 0.00 93 1007.7
20260507054024 41 154 0.0 2.0 0.00 0.81 0.00 92 1007.7
20260507053024 41 229 1.0 2.0 0.00 0.81 0.00 92 1007.8
20260507052003 41 229 1.0 3.0 0.00 0.81 0.00 92 1007.9
20260507051003 41 227 2.0 4.0 0.00 0.81 0.00 92 1007.9